TimeCST,TemperatureF,Dew PointF,Humidity,Sea Level PressureIn,VisibilityMPH,Wind Direction,Wind SpeedMPH,Gust SpeedMPH,PrecipitationIn,Events,Conditions,WindDirDegrees,DateUTC
12:53 AM,-7.1,-13.0,75,30.19,10.0,Calm,Calm,-,N/A,,Clear,0,2014-02-09 06:53:00
1:53 AM,-9.0,-15.0,75,30.19,10.0,Calm,Calm,-,N/A,,Mostly Cloudy,0,2014-02-09 07:53:00
2:53 AM,-11.0,-17.0,75,30.19,10.0,Calm,Calm,-,N/A,,Clear,0,2014-02-09 08:53:00
3:53 AM,-11.9,-17.0,78,30.21,10.0,Calm,Calm,-,N/A,,Overcast,0,2014-02-09 09:53:00
4:53 AM,-11.9,-18.0,74,30.23,10.0,Calm,Calm,-,N/A,,Scattered Clouds,0,2014-02-09 10:53:00
5:53 AM,-15.0,-20.0,78,30.23,10.0,Calm,Calm,-,N/A,,Clear,0,2014-02-09 11:53:00
6:53 AM,-16.1,-20.9,79,30.25,10.0,Calm,Calm,-,N/A,,Scattered Clouds,0,2014-02-09 12:53:00
7:53 AM,-14.1,-18.9,79,30.27,10.0,WNW,3.5,-,N/A,,Mostly Cloudy,300,2014-02-09 13:53:00
8:53 AM,-4.0,-11.0,72,30.27,10.0,Variable,3.5,-,N/A,,Clear,0,2014-02-09 14:53:00
9:53 AM,-0.0,-9.0,66,30.28,10.0,Variable,5.8,-,N/A,,Clear,0,2014-02-09 15:53:00
10:53 AM,1.9,-9.9,58,30.27,10.0,Variable,6.9,-,N/A,,Clear,0,2014-02-09 16:53:00
11:53 AM,3.9,-11.0,50,30.28,10.0,Variable,5.8,-,N/A,,Clear,0,2014-02-09 17:53:00
12:53 PM,3.9,-11.0,50,30.27,10.0,Variable,4.6,-,N/A,,Clear,0,2014-02-09 18:53:00
1:53 PM,3.9,-11.9,48,30.27,10.0,Variable,6.9,-,N/A,,Clear,0,2014-02-09 19:53:00
2:53 PM,5.0,-11.9,46,30.27,10.0,Variable,5.8,-,N/A,,Clear,0,2014-02-09 20:53:00
3:53 PM,5.0,-11.9,46,30.28,10.0,Variable,5.8,-,N/A,,Clear,0,2014-02-09 21:53:00
4:53 PM,3.9,-11.9,48,30.30,10.0,WNW,5.8,-,N/A,,Clear,290,2014-02-09 22:53:00
5:53 PM,-0.0,-13.0,54,30.33,10.0,Variable,3.5,-,N/A,,Clear,0,2014-02-09 23:53:00
6:53 PM,-2.0,-13.0,60,30.35,10.0,Calm,Calm,-,N/A,,Clear,0,2014-02-10 00:53:00
7:53 PM,-8.0,-15.0,71,30.36,10.0,Calm,Calm,-,N/A,,Clear,0,2014-02-10 01:53:00
8:53 PM,-7.1,-15.0,68,30.36,10.0,Calm,Calm,-,N/A,,Clear,0,2014-02-10 02:53:00
9:53 PM,-9.9,-18.0,68,30.37,10.0,Calm,Calm,-,N/A,,Clear,0,2014-02-10 03:53:00
10:53 PM,-15.0,-20.0,78,30.38,10.0,Calm,Calm,-,N/A,,Clear,0,2014-02-10 04:53:00
11:53 PM,-7.1,-15.0,68,30.38,10.0,Variable,3.5,-,N/A,,Clear,0,2014-02-10 05:53:00